Theta_e
313 316 317 317 318 318 316 315 315 315 314 313 315 315 315 315 314 314 311 304 304 307 309 310 310 310 310 310 311 311 311 309 310 310 309 310 309 308 308 307 306 306 307 307 307 307 307 307 305 304 302 301 299 298 297 297 297 297 297 297 297 297 296 296 296 296 296 296 296 297 296 296 296 296 296 296 296 295 294 294 293 293 293 293 293 293
312 316 318 318 318 316 314 313 312 312 311 312 314 314 314 315 314 313 309 303 303 306 308 309 309 309 309 309 310 310 310 310 311 311 311 311 310 310 309 308 307 306 306 306 305 306 306 305 305 303 301 300 299 298 297 297 297 297 297 297 296 296 296 296 296 296 296 296 296 296 296 296 296 296 296 295 295 294 293 293 293 293 293 293 292 292
314 317 318 317 314 311 309 308 308 310 311 311 313 313 313 314 313 312 308 303 303 306 309 309 308 309 309 309 310 311 311 311 311 312 312 312 311 311 311 309 308 307 306 306 305 305 305 305 304 303 301 299 298 298 297 297 297 297 296 296 296 296 296 296 296 296 296 296 296 296 296 295 295 295 295 294 293 293 293 292 292 292 292 292 292 292
316 316 313 311 310 310 308 305 307 309 310 311 312 313 314 315 314 312 309 304 304 306 307 308 307 309 310 309 310 311 311 310 310 310 310 310 311 311 311 310 308 307 307 306 305 305 305 305 304 303 301 299 298 297 297 297 297 296 296 296 296 295 295 295 295 295 295 295 295 295 295 295 294 294 294 293 292 292 292 292 292 292 292 292 292 292
317 313 306 306 309 312 310 306 307 310 311 312 312 313 315 315 313 312 309 305 307 307 304 307 310 311 313 313 313 311 308 307 307 308 308 309 310 310 309 309 307 308 309 308 307 306 306 305 305 304 302 300 298 298 298 297 297 296 296 296 295 295 295 295 295 295 295 295 295 295 294 294 294 293 293 292 292 292 292 292 292 291 291 292 292 292
316 309 305 309 309 311 312 309 309 312 313 313 313 313 313 314 313 312 310 307 310 311 306 308 311 314 317 316 315 312 309 309 308 307 309 310 311 310 309 308 307 309 310 309 308 308 307 306 305 304 302 301 300 299 298 297 296 296 296 295 295 295 295 295 295 294 294 294 294 294 294 293 293 292 292 292 292 292 292 292 291 291 291 291 291 291
314 305 306 313 311 311 313 311 312 311 313 314 312 312 311 311 312 311 309 309 312 313 308 308 312 314 315 314 314 314 312 312 312 311 312 312 312 312 310 308 308 310 310 309 309 308 308 306 305 305 304 303 302 300 298 297 296 295 295 295 295 295 294 294 294 294 294 294 294 294 293 293 292 292 292 291 292 292 292 292 292 292 292 292 291 291
312 306 306 311 312 312 312 313 313 309 312 315 309 308 310 309 310 309 309 310 311 311 308 309 311 312 313 312 313 314 313 312 313 313 314 314 314 313 311 309 308 310 310 310 310 310 309 308 307 306 306 304 303 301 299 297 296 295 295 294 294 294 294 294 294 294 294 294 293 293 292 292 292 292 291 291 292 292 292 292 292 292 292 292 291 291
310 311 310 310 310 311 312 313 313 310 313 312 304 304 306 307 308 308 309 310 308 308 310 310 310 311 313 313 311 311 312 312 313 313 313 314 315 313 312 310 310 311 311 311 311 310 310 310 309 307 305 304 303 301 300 298 296 295 294 294 294 294 293 293 293 293 293 293 292 292 292 292 291 291 291 291 292 292 292 292 292 292 292 291 290 290
310 308 308 310 311 312 312 307 306 311 312 307 302 304 305 305 306 306 308 309 308 308 311 311 310 311 314 314 310 308 310 312 313 313 314 315 315 313 311 310 312 313 312 312 311 311 311 310 308 306 304 303 302 301 300 297 296 295 294 294 293 293 293 293 293 293 292 292 292 292 291 291 291 291 291 291 291 292 292 292 291 291 291 290 290 289
307 303 305 309 311 310 308 302 300 306 307 304 305 308 308 306 305 305 306 308 309 312 313 312 311 311 313 315 312 310 311 312 313 313 314 315 314 312 311 311 313 314 313 313 312 312 311 310 307 305 303 302 301 300 299 297 296 294 294 293 293 293 293 293 292 292 292 292 291 291 291 291 290 290 291 291 291 291 291 291 290 290 290 289 289 289
307 306 307 308 306 305 306 304 301 301 301 304 308 310 311 310 308 307 307 307 311 314 312 310 311 311 312 314 313 312 311 311 313 313 313 315 315 313 312 313 314 314 314 313 313 313 312 311 309 307 304 303 301 300 299 297 296 294 294 293 293 293 292 292 292 291 291 291 291 291 291 290 290 290 291 291 291 290 290 290 290 289 289 289 289 289
312 310 309 308 304 305 310 309 304 302 302 306 309 310 313 314 312 312 311 310 312 314 310 307 309 311 311 312 312 311 311 310 311 312 313 315 316 314 313 314 314 313 314 313 313 313 312 311 311 309 308 305 304 302 300 298 296 294 293 293 293 292 292 292 291 291 291 291 291 291 290 290 290 290 290 290 290 290 289 289 289 288 288 288 288 288
314 312 308 309 308 306 310 312 311 308 305 306 310 312 314 315 314 315 314 311 313 314 308 304 307 310 310 311 312 311 311 312 312 311 312 312 313 313 313 313 313 313 313 313 313 313 313 312 311 311 309 308 306 305 302 300 298 296 294 293 292 292 292 292 291 291 291 290 290 290 290 290 290 290 290 290 289 289 289 288 288 288 288 288 288 288
315 314 310 311 311 308 309 312 315 312 306 307 310 312 313 314 314 314 312 311 312 314 309 304 307 311 311 311 312 312 311 312 312 311 311 310 310 310 310 310 311 312 313 312 313 313 313 313 312 311 310 309 307 306 303 302 299 297 295 293 292 292 292 291 291 290 290 290 290 290 290 290 290 290 289 289 289 288 288 288 288 288 288 288 288 289
313 315 313 310 308 308 309 311 312 311 309 307 308 310 312 313 312 312 312 311 311 312 311 308 309 312 311 311 310 310 311 310 310 311 310 309 309 309 307 308 310 311 312 312 313 313 313 312 312 311 310 309 307 305 304 303 301 299 296 294 293 292 292 291 291 290 290 290 290 289 289 289 289 289 289 289 288 288 288 288 288 288 288 288 288 289
313 314 312 306 305 305 305 306 307 310 311 308 307 310 310 310 311 312 313 310 308 310 313 311 311 312 312 311 310 310 311 310 309 309 309 308 308 308 307 309 310 311 312 312 312 313 313 312 312 312 311 309 308 308 306 305 303 300 298 295 293 292 292 291 290 290 290 290 289 289 289 289 289 289 289 288 288 288 288 288 288 288 288 288 288 289
315 314 311 307 309 304 298 302 305 304 306 307 308 310 309 308 309 310 312 311 310 312 314 313 312 312 312 313 310 309 310 309 309 310 309 307 307 307 307 309 311 311 312 312 312 312 312 312 312 312 311 310 310 308 307 305 303 300 298 296 294 293 292 291 290 290 290 289 289 289 289 289 289 289 288 288 288 288 288 288 288 288 288 288 288 288
315 314 312 306 306 303 298 303 307 303 302 305 306 307 308 310 311 310 310 311 312 313 313 313 313 313 313 313 311 310 310 310 309 310 310 308 307 306 305 308 310 310 311 312 312 312 312 312 312 312 311 311 309 308 306 304 302 300 297 295 294 293 292 291 290 290 290 289 289 289 289 288 288 288 288 288 288 288 288 288 288 288 288 288 288 288
313 313 314 305 301 304 302 305 309 307 303 302 304 304 305 308 311 310 310 310 312 312 313 314 314 314 314 313 313 312 312 312 311 310 310 309 308 307 307 309 311 311 311 312 312 312 312 312 312 312 311 310 309 307 306 304 302 299 297 295 293 292 291 291 290 290 290 289 289 289 288 288 288 288 288 288 288 288 288 288 288 288 288 288 288 288
312 312 314 307 300 304 306 306 310 311 307 304 305 306 305 306 307 308 308 308 310 312 312 313 314 313 313 313 312 312 312 312 312 312 312 311 310 308 308 310 311 311 311 312 312 313 313 312 312 311 311 310 308 307 305 304 301 298 296 294 293 292 291 290 290 290 289 289 289 288 288 288 288 288 288 288 288 287 287 288 288 288 288 288 288 288
313 312 314 311 306 307 310 309 309 311 311 308 307 308 307 308 308 308 310 309 308 310 312 312 313 313 313 313 312 311 312 312 312 312 312 311 310 309 309 310 311 311 312 312 313 313 312 312 312 311 310 309 308 307 306 304 301 298 296 294 292 291 291 290 290 290 289 289 288 288 288 288 288 288 288 288 287 287 287 288 288 288 288 288 288 288
314 314 313 313 313 311 308 305 304 307 311 310 308 309 309 309 309 311 312 311 308 309 310 310 311 312 313 314 313 313 313 311 311 312 313 311 309 310 311 311 311 311 312 313 313 312 312 312 311 311 310 309 308 307 306 304 301 298 296 294 292 291 291 290 290 289 289 288 288 288 288 288 288 288 288 287 287 287 287 288 288 288 288 288 288 287
312 314 313 313 314 312 305 300 300 303 307 308 308 308 308 308 310 310 310 310 309 310 309 309 309 311 313 314 314 314 313 311 310 310 311 310 309 310 312 311 311 311 312 313 313 312 312 311 311 310 310 309 308 307 306 304 301 298 295 293 292 291 291 290 290 289 289 288 288 288 288 288 288 288 287 287 287 287 287 288 288 288 288 287 287 287
311 314 314 313 314 313 309 306 304 302 304 307 307 306 308 309 309 309 307 306 308 311 310 310 310 311 312 314 313 311 311 312 310 307 307 308 308 310 311 311 312 312 312 313 312 312 311 311 310 310 309 309 308 307 306 303 300 297 295 293 292 291 290 290 290 289 288 288 288 288 288 288 288 287 287 287 287 287 287 288 288 288 288 287 287 287
313 314 313 312 313 313 312 311 310 306 304 305 306 305 306 308 308 308 308 308 309 310 310 310 311 311 312 313 311 310 310 311 309 307 306 306 307 308 308 309 311 312 312 312 312 311 311 310 310 309 308 308 307 306 305 303 300 297 294 293 292 291 290 290 289 289 288 288 288 288 288 288 288 287 287 287 287 287 288 288 288 288 287 287 287 286
314 314 311 312 312 312 312 312 311 309 306 306 306 305 306 308 308 309 309 310 310 310 309 310 311 311 311 311 311 311 311 311 310 308 307 306 306 306 307 309 311 311 312 311 310 310 309 309 308 307 307 307 306 305 304 302 300 297 294 292 291 290 290 289 289 288 288 288 288 288 288 288 287 287 287 287 287 288 288 288 288 287 287 287 286 286
314 313 311 312 311 311 312 311 311 311 308 307 308 307 306 307 309 310 310 310 310 309 310 311 311 311 311 310 310 311 310 310 310 310 309 309 307 306 307 309 310 310 311 310 309 309 308 307 307 306 306 305 305 304 303 301 298 296 294 292 291 290 289 289 289 288 288 287 287 288 287 287 287 287 287 287 287 288 288 287 287 287 286 286 286 285
311 312 312 313 312 311 311 310 311 311 310 309 309 308 307 307 308 309 310 310 310 310 310 311 311 311 311 310 310 310 310 310 310 310 310 309 308 307 307 308 308 308 308 308 308 307 307 307 306 306 305 304 303 303 301 299 297 295 293 292 291 290 289 289 288 288 288 287 287 287 287 287 287 287 287 287 287 287 287 287 287 286 286 286 285 285
310 310 311 311 311 311 311 311 311 310 309 309 309 309 309 308 308 308 308 309 309 310 310 310 311 311 311 310 310 311 311 310 310 310 310 309 308 307 307 307 307 307 306 306 306 307 307 307 306 305 303 303 302 302 301 299 297 295 292 291 290 289 289 288 288 288 287 287 287 287 287 287 287 287 287 287 287 287 287 287 286 286 286 286 285 284
308 310 310 310 310 311 310 310 311 310 310 309 309 309 309 308 308 308 308 308 308 309 309 309 310 310 310 310 310 310 310 310 309 309 309 308 308 308 308 307 307 307 307 306 306 306 306 306 305 304 302 303 302 302 301 299 297 295 292 291 290 289 288 288 288 287 287 287 287 287 287 287 287 287 287 287 287 287 287 286 286 286 286 285 284 283
308 309 309 309 310 311 310 310 310 309 309 308 308 308 308 308 308 308 308 308 308 308 309 309 309 309 309 309 309 309 309 308 308 308 308 308 308 308 308 307 308 307 307 307 307 306 306 305 305 304 304 303 303 301 301 299 297 295 292 291 290 289 288 288 287 287 287 287 287 287 287 287 287 287 287 287 287 287 286 286 286 286 285 285 284 283
307 308 309 309 310 310 310 311 310 310 310 309 309 309 309 309 309 309 309 309 309 309 309 309 309 309 309 309 309 309 309 309 309 309 309 309 308 308 308 307 307 308 307 307 307 307 306 306 306 306 305 304 303 302 302 300 298 296 293 291 289 288 288 288 287 287 287 287 287 287 287 287 287 287 287 287 287 286 286 286 286 286 285 284 283 282
307 308 308 309 310 310 311 310 310 311 311 311 310 310 309 309 309 309 310 310 310 310 309 309 309 309 309 310 310 310 310 310 310 310 310 309 309 308 308 308 308 308 308 308 307 307 307 307 306 306 305 304 303 302 301 299 297 295 293 291 289 288 288 287 287 287 287 287 287 287 287 287 287 287 287 287 287 286 286 286 285 285 285 284 283 282
308 308 308 309 310 310 310 310 311 312 312 311 311 310 309 309 309 310 310 310 310 310 310 310 310 309 310 310 310 310 310 310 310 310 309 309 309 308 308 308 308 308 308 308 308 307 307 307 306 305 304 304 302 300 299 298 295 293 291 290 288 288 287 287 287 287 287 287 287 287 287 287 287 287 287 287 286 286 285 285 285 285 284 283 282 281
308 308 308 309 309 309 310 310 311 312 311 310 310 310 309 309 309 310 311 310 309 309 310 310 310 310 310 310 310 310 310 310 309 309 309 308 308 308 308 308 308 308 308 308 308 307 307 307 306 306 305 304 302 300 298 297 295 292 290 289 288 287 287 286 286 287 287 287 287 287 287 287 287 287 287 286 285 285 285 285 285 284 284 283 282 281
308 308 309 309 309 310 310 310 311 312 310 310 311 310 309 310 310 311 311 310 309 309 309 309 309 309 309 309 309 309 309 308 308 308 308 308 308 308 308 308 308 308 308 308 308 307 307 306 306 305 304 303 302 300 298 296 294 291 289 288 287 287 287 286 286 287 287 287 287 287 287 287 287 287 286 285 285 285 285 284 284 284 283 282 281 281
308 308 309 309 310 311 310 310 311 311 311 311 311 311 310 310 310 310 310 310 309 309 309 309 309 309 309 309 309 309 309 308 308 308 308 309 309 308 308 308 308 308 308 308 308 307 307 306 305 304 303 302 300 299 298 296 294 291 289 288 287 287 286 286 286 287 287 287 287 287 287 287 287 286 286 285 285 285 285 284 283 283 283 282 281 280
308 308 308 309 310 311 311 311 311 311 311 311 310 310 310 311 310 309 309 310 310 309 309 309 309 309 309 309 309 309 309 308 309 309 309 310 309 308 308 309 309 309 309 308 308 307 307 306 305 304 302 301 300 299 298 295 293 290 288 287 287 286 286 286 287 287 287 287 287 287 287 287 286 286 285 284 284 284 284 283 283 283 282 281 280 280
308 308 308 309 309 310 311 311 311 311 312 312 311 310 310 310 309 309 310 311 310 309 310 309 309 309 309 309 309 309 309 309 309 309 310 310 309 309 309 309 309 309 309 309 308 307 307 306 306 305 304 303 301 300 298 295 292 290 288 287 287 286 286 286 287 287 287 287 287 287 287 286 286 285 284 284 284 284 283 283 283 283 282 280 280 279
309 308 308 309 309 309 310 311 311 311 312 312 311 310 309 308 309 310 311 311 309 310 310 309 309 309 309 308 309 309 309 309 308 309 310 310 309 308 308 308 309 309 309 309 309 308 308 307 307 306 304 303 301 299 297 294 291 289 288 287 286 286 286 286 287 287 287 287 287 287 286 286 285 284 284 284 284 283 283 282 283 282 281 280 279 279
309 309 309 310 309 309 310 310 310 311 311 311 310 309 308 308 310 310 311 310 310 310 310 310 310 309 309 308 308 308 308 309 309 309 309 309 309 309 308 307 308 308 308 308 308 308 308 307 306 304 302 301 300 298 296 293 291 289 288 287 286 286 286 286 286 287 287 287 287 286 286 286 285 284 283 283 283 283 282 282 282 281 280 279 279 278
312 311 310 310 310 310 310 311 311 312 312 311 310 309 307 309 311 311 310 311 311 310 310 310 310 309 309 308 308 308 308 308 309 309 308 309 309 309 308 307 307 307 307 307 307 307 307 306 305 303 301 300 298 296 294 292 290 288 287 286 286 286 286 286 286 286 286 286 286 286 286 285 284 283 283 283 283 282 281 281 281 280 279 279 278 278
313 313 312 310 310 311 311 311 312 312 311 310 311 310 308 309 310 310 310 311 311 310 310 310 310 309 309 308 308 308 308 308 308 308 308 308 309 309 308 307 306 306 306 306 306 306 305 304 303 301 299 298 297 295 293 291 290 288 286 285 286 286 286 286 286 286 286 286 286 286 285 284 284 283 283 283 282 281 281 280 280 279 279 278 277 277
313 313 313 312 311 312 312 312 311 310 310 310 310 310 309 309 309 310 311 311 311 311 310 310 310 310 309 309 308 308 308 308 308 308 308 308 309 309 308 307 306 305 304 304 304 304 303 302 302 300 298 296 295 293 292 290 289 287 286 285 286 286 286 286 286 286 286 286 286 286 285 284 283 283 282 282 281 280 280 279 279 279 278 277 276 276
312 312 312 312 312 311 312 311 310 310 310 310 310 310 310 310 309 309 309 310 310 310 310 310 310 310 310 309 308 307 307 308 308 308 308 308 308 307 307 306 306 305 304 303 302 301 300 299 299 298 297 294 292 290 290 289 288 287 286 286 286 286 286 286 286 286 286 286 286 285 284 283 283 282 282 281 280 279 279 278 278 278 277 276 276 275
311 310 310 311 312 312 313 313 311 311 311 310 310 310 309 309 310 309 309 309 309 310 310 310 310 309 309 309 308 307 308 308 308 307 308 307 307 307 307 306 306 306 305 303 301 300 299 298 297 296 295 294 291 290 289 287 286 285 286 286 286 286 286 286 286 286 287 286 285 284 283 283 282 281 281 280 279 279 278 278 278 278 277 276 275 274
310 309 308 310 310 310 311 311 311 311 311 311 310 310 309 309 309 309 309 308 308 309 309 309 309 309 309 308 308 307 307 308 308 307 307 307 307 306 306 306 306 305 304 302 300 299 298 298 298 296 295 294 292 290 288 287 285 285 285 286 286 286 286 286 286 286 286 285 284 283 283 282 281 280 280 279 279 278 278 278 278 277 276 275 274 274
307 306 307 309 309 309 309 309 310 310 311 311 310 310 310 309 309 308 308 308 308 308 308 308 308 308 307 307 307 307 306 307 307 307 306 307 306 306 306 306 305 304 303 301 299 299 298 299 298 296 294 294 293 291 288 286 285 284 285 286 286 286 286 286 286 286 285 284 283 283 282 281 280 279 278 278 278 278 277 277 277 276 275 274 274 273
303 303 305 307 307 307 308 310 310 310 310 310 310 310 309 309 308 308 308 307 307 308 307 307 307 307 307 306 306 306 306 306 307 307 306 306 306 306 306 305 304 302 301 300 298 297 297 297 297 296 294 294 293 290 288 286 285 284 285 285 286 286 286 286 286 286 284 283 283 282 281 280 279 278 277 278 277 277 277 277 277 276 275 274 273 272
303 303 304 305 306 306 308 309 309 308 308 308 308 308 308 308 308 307 307 307 308 308 308 308 307 307 306 307 307 306 305 305 306 306 305 305 305 306 305 305 304 302 301 299 297 296 295 294 293 294 294 293 291 289 287 285 285 284 285 285 286 286 286 286 286 285 284 283 282 282 280 279 278 277 277 277 277 276 276 277 277 276 274 273 273 272
Wind_Speed
4 4 5 9 11 9 10 13 10 3 0 2 2 4 8 7 10 9 2 4 2 4 11 15 15 18 20 19 22 26 19 18 24 26 30 29 25 33 37 36 36 37 38 35 34 36 38 41 43 45 46 46 46 45 43 42 40 38 37 36 35 34 32 31 29 28 26 25 24 23 22 20 18 16 15 14 12 11 11 10 10 12 13 15 17 19
3 6 11 14 10 3 4 8 5 2 2 4 5 5 7 8 9 7 2 4 3 3 8 12 14 17 19 18 21 24 17 20 29 25 28 29 27 36 39 37 36 34 35 33 33 35 35 39 43 45 47 47 48 47 45 44 42 40 38 37 36 34 33 32 31 29 28 27 26 24 23 21 19 18 16 14 13 12 11 11 11 12 14 16 18 20
3 10 14 6 3 6 4 2 5 4 4 3 4 3 6 6 6 5 1 4 3 3 6 7 12 17 19 19 21 25 19 22 30 26 28 29 27 32 33 32 32 29 31 31 31 33 33 36 41 45 48 49 49 48 47 45 44 42 40 38 37 35 34 33 31 30 29 28 27 25 23 21 20 18 16 14 13 12 12 12 12 13 15 16 18 20
5 9 7 3 9 7 3 3 5 3 3 5 4 4 7 3 2 5 0 2 3 4 7 9 12 14 16 17 19 23 20 21 27 27 30 33 32 34 29 25 26 27 30 30 30 31 30 33 38 44 49 50 50 49 48 47 46 44 41 39 38 36 35 34 32 31 30 29 27 26 24 21 20 18 16 15 14 13 12 12 13 14 16 17 19 20
8 3 3 6 5 6 3 4 7 5 4 6 6 8 10 5 5 6 2 4 4 4 4 8 12 11 9 10 10 8 8 13 19 21 27 33 36 38 33 28 27 26 28 29 29 28 28 31 35 41 46 49 51 51 51 50 48 46 42 40 39 37 36 34 32 32 31 30 28 26 24 22 20 18 16 15 14 13 12 13 14 16 17 18 19 20
10 2 7 5 2 4 5 4 8 8 5 5 8 13 14 8 6 4 3 5 6 3 1 4 10 9 5 6 5 2 1 7 9 9 17 27 30 30 31 31 28 24 26 29 28 27 27 28 32 37 42 46 50 52 51 51 49 46 42 41 39 37 36 34 33 33 32 30 28 26 24 22 20 18 16 15 14 13 12 14 15 16 18 19 19 20
4 2 4 4 4 6 6 6 7 8 5 4 4 8 11 8 5 3 0 2 5 3 1 3 7 10 2 6 5 3 4 6 6 7 13 21 26 27 28 28 24 22 26 28 27 26 26 27 30 33 37 41 46 49 50 50 48 45 43 41 39 38 37 36 35 34 33 31 29 26 24 22 20 17 16 14 13 13 13 14 15 16 18 19 20 21
2 4 3 4 5 5 6 6 7 11 6 3 1 1 4 5 5 4 3 5 5 4 2 3 5 12 9 7 8 7 8 8 9 13 14 17 26 31 30 28 23 22 24 24 24 25 25 26 28 30 32 35 40 45 48 49 48 46 43 41 40 39 38 37 36 35 34 32 29 26 24 22 19 17 16 15 14 13 14 15 16 17 18 19 20 21
2 5 6 7 6 6 6 2 6 13 6 1 2 3 4 4 3 4 4 5 3 4 4 7 7 10 11 6 5 5 9 10 11 15 15 16 25 28 26 25 21 19 20 20 21 22 21 23 24 26 28 31 36 41 44 47 47 46 44 42 41 40 39 38 37 36 34 31 29 27 24 22 19 17 16 15 15 15 15 16 17 18 18 19 20 21
2 3 5 7 6 6 3 4 2 8 4 3 5 5 7 5 4 3 3 3 2 4 6 8 11 8 11 5 7 1 5 9 10 12 12 14 21 23 22 20 16 16 17 17 17 17 17 20 21 23 25 28 33 37 41 44 46 46 45 44 43 42 41 39 38 36 34 31 29 27 24 22 19 17 15 15 15 16 17 17 18 18 18 19 20 20
2 2 0 4 5 2 6 6 4 2 3 6 6 4 4 3 3 2 1 1 4 7 7 12 17 12 10 1 9 5 4 8 9 9 11 12 16 21 21 17 13 14 14 13 13 13 15 17 19 21 24 27 31 35 40 43 46 46 46 45 44 44 42 40 38 36 34 32 29 26 24 21 19 16 15 15 16 17 18 18 18 18 19 19 20 20
2 3 2 3 5 6 6 5 5 5 3 4 3 2 1 1 2 2 1 2 6 7 4 8 13 15 12 4 7 5 3 7 9 9 10 9 11 19 20 15 14 15 13 11 11 12 14 16 18 20 23 27 30 34 39 43 46 47 47 47 46 46 44 41 39 37 34 32 29 26 24 21 18 17 16 17 18 18 18 18 18 18 19 19 20 20
3 5 3 2 5 7 5 4 4 2 2 3 3 3 3 3 2 3 3 4 6 5 2 3 4 9 15 11 5 4 4 8 8 8 11 8 9 16 18 15 15 16 14 13 12 13 14 15 17 19 23 26 29 32 36 41 45 48 48 49 48 47 46 43 40 38 35 32 29 26 23 20 18 18 17 18 18 18 17 17 17 18 19 19 20 21
3 1 5 4 4 9 11 7 4 4 6 8 7 6 5 4 2 5 5 3 5 4 3 4 2 6 11 9 11 15 15 14 11 14 20 16 13 15 15 16 16 17 16 14 13 15 16 16 16 18 22 24 26 29 32 37 42 46 49 50 50 49 47 44 41 38 35 32 28 26 23 21 19 19 19 18 18 17 17 17 17 18 19 20 21 22
5 5 7 8 4 12 17 9 3 5 7 8 4 3 5 4 4 6 5 5 7 5 2 4 2 5 5 2 5 9 10 12 15 24 28 24 23 21 16 16 17 19 18 15 16 18 19 18 17 18 21 23 25 27 30 34 39 44 49 51 52 51 49 45 42 39 36 32 28 25 23 21 20 20 19 18 17 17 17 17 17 18 19 21 22 23
6 8 4 4 2 12 12 4 4 6 5 4 2 2 4 3 5 4 3 2 3 7 5 5 4 7 3 1 3 2 2 6 13 22 22 22 31 29 22 22 22 22 22 20 20 22 22 20 19 20 21 23 25 27 29 32 36 42 47 52 53 52 49 46 43 40 36 32 28 25 24 22 21 20 19 17 16 17 17 17 18 18 20 22 24 25
4 4 3 3 1 5 2 2 3 1 3 4 3 5 2 0 3 4 3 1 1 6 7 4 6 9 6 5 7 7 6 6 8 13 13 20 32 28 25 32 32 29 28 26 24 24 24 22 20 21 23 24 26 27 28 31 34 39 45 50 53 53 51 47 44 40 36 32 28 26 25 23 21 20 18 17 17 17 17 17 18 20 21 23 25 27
4 3 3 4 1 2 2 3 3 3 1 4 4 5 3 2 0 2 3 1 2 8 7 6 11 12 10 6 3 7 9 9 11 11 9 17 25 21 27 39 41 38 36 32 29 28 26 24 22 22 23 25 27 27 28 31 34 39 44 49 53 53 52 48 44 40 36 32 29 27 25 23 21 19 18 17 17 17 17 18 20 21 23 24 26 28
3 3 3 2 1 3 2 1 3 2 2 1 2 1 1 2 3 3 2 3 6 7 6 12 16 14 12 8 2 7 10 11 13 12 9 12 14 17 30 41 42 42 38 34 33 31 29 27 24 23 24 27 29 29 30 32 35 39 43 49 52 52 51 48 44 40 36 33 30 27 25 23 20 19 18 18 18 17 18 19 21 22 24 25 27 30
2 4 3 1 2 3 3 4 6 5 2 1 2 1 1 2 3 3 2 2 5 6 7 14 17 14 8 5 4 8 11 12 12 10 10 11 13 22 34 40 41 40 36 34 34 33 31 28 25 24 26 29 30 31 32 34 36 39 43 48 52 52 50 47 43 41 37 34 31 28 25 23 21 19 19 18 18 18 19 20 22 23 24 26 28 31
3 3 4 1 1 2 5 7 9 10 8 5 5 6 4 2 1 1 2 2 3 6 7 9 12 14 4 6 6 8 10 12 11 10 10 9 18 31 37 39 41 39 36 35 35 33 32 29 26 26 28 30 32 32 34 35 37 40 43 48 51 52 50 47 44 41 38 34 31 28 25 23 21 20 19 19 18 19 20 21 22 23 25 27 29 32
3 4 6 3 3 5 6 5 3 4 5 7 8 8 9 7 4 3 6 3 2 5 8 6 10 15 5 5 4 5 6 8 8 9 9 9 20 31 35 38 39 37 37 36 34 34 32 30 28 28 30 32 33 34 35 37 38 40 44 48 51 52 50 48 46 42 38 34 31 28 25 24 22 21 20 19 19 19 20 21 23 24 26 28 30 32
4 2 5 7 6 5 3 0 1 3 1 2 4 6 8 8 7 8 7 4 2 4 7 4 7 14 4 5 2 4 4 5 8 10 8 10 21 27 29 35 36 35 37 34 33 33 32 31 31 31 33 33 34 36 37 39 40 41 44 48 51 52 52 49 46 42 38 34 31 29 26 24 22 21 20 19 19 20 20 21 23 25 27 29 31 32
3 1 5 6 6 3 1 2 1 1 1 3 6 6 7 8 10 7 3 1 2 6 8 3 6 13 4 4 4 3 1 4 9 11 9 11 21 25 26 29 31 34 36 33 32 33 32 32 33 34 35 35 36 38 39 40 41 42 44 48 51 53 52 50 46 42 38 35 32 30 27 25 23 21 20 20 19 20 21 22 24 26 27 29 31 32
6 3 4 4 6 6 4 4 3 2 4 5 5 6 8 10 9 3 2 0 4 13 13 5 8 14 5 2 3 1 0 6 7 8 9 12 17 22 24 26 29 33 34 31 31 33 34 33 34 37 37 36 37 39 40 41 42 42 45 48 51 53 52 50 46 42 38 35 33 30 28 25 23 22 20 20 19 20 21 22 24 26 27 29 30 32
9 4 7 7 9 10 11 10 4 4 6 4 2 6 11 13 13 7 3 5 9 14 13 8 12 16 10 8 9 4 4 8 6 5 10 17 20 22 23 24 27 31 33 31 31 33 34 34 36 38 37 37 38 39 40 42 42 43 45 47 51 53 52 50 46 42 39 36 34 31 28 26 23 22 21 19 20 20 21 23 24 25 27 28 30 31
4 4 12 14 14 13 15 15 5 6 7 7 6 10 12 15 17 11 7 11 9 5 7 13 19 20 17 19 23 16 11 12 8 5 8 19 24 24 25 26 28 32 34 32 31 33 34 36 39 40 38 37 38 39 40 42 43 44 45 48 51 53 52 50 46 43 40 37 34 31 28 26 23 22 20 19 19 20 21 23 24 25 27 28 29 30
2 4 14 18 20 18 18 23 19 7 8 9 9 12 14 16 18 16 17 16 6 2 8 20 23 20 16 20 28 27 20 17 14 9 13 22 24 23 25 28 31 34 37 36 37 38 39 41 42 40 38 38 38 39 41 42 43 44 46 49 52 53 53 50 46 43 40 37 34 31 28 26 23 21 20 19 20 20 21 22 23 24 26 27 28 28
2 6 10 13 19 19 19 25 27 19 13 11 11 12 14 16 19 22 23 18 9 9 16 21 22 20 16 21 29 28 19 14 15 20 25 24 19 17 21 27 33 36 38 40 42 42 42 42 41 40 39 37 37 38 40 42 44 45 48 51 53 54 53 50 46 44 41 38 35 31 28 26 23 21 19 19 20 20 21 21 22 24 26 27 27 27
1 4 8 12 16 18 20 24 25 22 19 18 16 13 14 20 23 21 19 18 19 22 22 20 23 21 18 24 27 21 18 18 21 27 30 27 24 22 22 28 35 39 40 40 41 42 42 41 41 41 39 37 38 39 41 43 44 46 50 52 53 54 53 50 47 44 41 38 34 31 28 25 22 20 19 19 20 20 20 21 22 24 25 26 26 26
2 6 9 11 11 15 20 24 26 24 21 20 17 13 18 27 23 18 18 19 20 22 21 19 19 18 19 25 21 17 24 28 25 26 29 34 37 31 26 31 38 40 39 39 40 42 43 43 42 41 40 39 40 41 41 43 45 47 51 53 55 55 53 50 47 44 41 37 34 30 27 24 21 19 19 19 19 19 19 20 22 23 24 25 25 25
4 8 9 9 9 13 18 22 24 21 15 11 11 17 26 28 20 18 21 18 16 19 21 18 15 14 18 20 17 19 25 24 21 22 26 33 36 29 25 32 39 40 38 37 40 43 42 43 44 43 43 42 41 41 42 43 45 48 51 54 56 56 53 50 47 44 40 36 33 29 26 23 20 19 19 19 18 18 19 20 21 23 23 24 24 25
6 7 8 8 8 12 18 20 17 13 7 4 12 24 29 25 22 24 24 23 23 21 17 14 12 15 17 17 19 21 20 18 19 22 26 29 28 26 27 33 39 42 42 41 43 43 43 44 45 44 44 42 41 41 42 42 44 48 51 54 56 55 52 49 46 43 39 35 32 28 25 22 20 19 19 18 18 18 18 19 21 22 22 23 23 24
8 8 8 7 6 11 15 13 9 9 11 13 16 21 23 25 29 29 26 25 24 17 13 12 14 19 21 20 20 19 18 23 28 32 38 38 29 26 33 39 42 45 47 46 44 43 44 45 44 44 42 40 39 39 40 41 43 46 50 54 55 54 52 49 46 42 38 34 30 27 24 21 20 19 18 17 17 17 18 19 20 21 21 22 23 24
9 10 9 6 6 8 8 6 7 11 14 12 9 12 20 26 29 30 29 27 23 17 15 18 21 23 23 22 21 21 26 33 36 39 46 46 35 32 38 45 48 49 48 48 44 43 45 44 42 41 39 37 38 38 38 41 43 46 50 53 54 53 50 48 45 41 37 33 29 26 23 21 19 18 17 16 16 16 17 19 19 19 21 22 23 24
12 10 7 6 7 5 5 8 10 7 3 2 4 10 18 19 21 25 26 23 20 17 17 22 24 24 26 25 26 32 36 34 30 36 47 49 42 39 41 45 50 51 49 47 43 41 43 43 41 40 38 36 36 37 38 40 43 46 50 53 53 52 49 47 44 40 36 32 28 25 22 20 19 18 16 15 15 16 17 18 18 18 20 22 23 23
16 11 7 8 9 7 8 11 10 7 3 3 8 12 14 16 17 18 15 12 12 14 19 23 22 24 28 26 29 38 34 20 14 26 46 55 47 39 42 46 49 50 48 46 43 40 41 40 37 34 32 32 33 34 37 39 42 46 50 53 53 51 50 47 43 39 35 31 27 24 22 20 18 17 15 14 15 16 16 16 16 18 20 22 23 23
18 15 12 10 9 9 11 9 8 9 7 10 16 16 18 21 15 8 7 7 8 15 24 24 22 25 27 24 27 29 18 7 7 17 39 56 45 30 34 41 42 43 43 42 39 36 35 34 31 29 28 29 30 32 34 37 41 47 51 53 53 52 50 47 43 38 34 30 27 23 21 19 17 15 14 14 14 15 15 15 15 18 21 23 23 23
21 16 14 13 8 8 10 9 9 10 7 11 17 20 26 29 13 2 5 8 10 20 27 25 25 25 22 22 25 18 7 6 9 15 38 55 42 26 28 33 34 36 36 35 32 29 27 27 27 27 27 27 29 30 32 36 41 47 52 54 54 53 51 47 42 37 33 29 25 23 20 18 16 14 13 13 14 14 13 14 15 18 21 23 24 23
20 13 11 12 10 11 14 11 8 8 5 9 16 21 25 20 8 5 8 11 14 25 30 26 25 25 22 22 22 13 8 11 13 24 45 51 37 29 31 31 31 31 30 28 26 22 23 24 24 25 26 27 29 30 33 37 42 48 53 55 55 54 50 46 40 36 32 28 24 22 19 16 14 13 12 13 13 12 12 13 15 19 22 23 23 23
12 10 11 12 11 14 17 12 8 9 6 10 17 19 12 12 10 8 13 14 15 23 30 28 23 24 26 23 16 12 17 27 33 43 51 46 37 37 36 31 31 30 27 26 23 21 23 23 23 24 24 26 29 31 34 38 44 50 54 55 55 53 48 43 38 34 31 27 23 20 17 14 13 12 12 12 11 12 12 13 16 20 22 22 23 22
7 7 10 11 9 11 13 10 10 10 7 12 21 19 15 14 8 12 17 22 23 23 27 28 23 24 28 24 20 23 31 40 45 46 46 46 46 45 41 35 33 31 28 27 26 24 25 25 25 25 24 25 28 30 34 39 44 50 54 55 54 50 45 41 36 32 29 25 21 18 15 13 12 12 12 11 10 10 12 13 16 20 22 22 22 22
9 7 8 8 8 10 10 8 9 7 11 22 26 16 13 13 16 15 18 27 31 29 28 28 27 29 30 26 27 32 36 40 42 41 41 45 47 46 45 41 36 33 31 30 30 29 29 28 27 27 26 27 29 31 34 39 44 50 53 54 52 47 43 38 34 30 26 23 18 15 13 12 12 12 11 10 9 10 12 13 16 20 22 22 21 21
10 9 7 6 8 9 9 9 11 10 15 27 25 12 14 28 36 34 26 21 25 31 31 28 30 36 36 32 33 36 36 37 40 40 40 42 44 46 47 42 37 34 32 31 31 30 30 29 28 28 28 29 31 33 35 39 45 51 54 53 49 45 41 36 32 28 24 20 17 14 12 12 12 13 11 8 8 9 11 12 15 19 21 20 20 20
12 14 14 11 11 11 10 10 12 13 16 26 30 25 29 41 49 49 40 27 25 32 32 29 31 37 41 40 38 36 35 36 39 40 41 42 45 46 44 41 38 35 33 33 33 31 31 31 29 29 30 31 32 34 37 41 47 52 54 52 47 43 39 35 31 27 23 19 16 14 13 13 13 12 9 7 7 9 10 11 15 19 20 19 18 19
7 12 14 12 10 11 14 13 12 13 16 23 34 40 44 45 43 43 41 35 33 35 34 33 34 36 39 39 36 35 37 39 40 41 41 42 43 42 42 41 39 36 36 36 35 34 33 31 29 30 32 34 36 38 40 45 49 52 54 51 46 41 38 34 30 26 22 19 16 14 14 14 13 11 8 6 6 8 9 11 15 18 18 17 16 17
4 7 8 8 10 11 11 9 10 14 16 19 27 36 41 42 39 37 38 39 42 45 44 42 41 41 39 35 31 34 39 41 40 40 40 41 41 43 44 44 42 42 42 41 40 39 36 34 33 33 35 37 39 42 45 48 51 52 52 49 45 41 37 33 30 26 22 19 17 15 14 14 12 9 6 5 6 8 9 11 14 17 16 15 15 16
5 8 6 5 8 10 9 10 13 18 21 23 24 23 25 32 38 40 41 41 43 45 46 46 47 45 41 36 34 36 39 40 41 40 39 39 41 44 46 46 45 45 44 42 42 41 38 37 37 37 38 39 41 45 48 52 54 53 50 47 44 40 36 32 28 24 21 19 17 15 15 14 11 7 5 5 6 8 9 11 13 16 15 14 15 17
11 10 7 8 10 11 13 14 15 17 21 26 27 24 22 26 30 31 32 34 35 38 42 45 46 45 42 41 40 39 39 41 44 43 41 41 42 45 47 48 47 46 45 44 45 43 42 41 40 39 41 41 42 47 52 56 57 53 50 47 44 40 36 32 28 24 21 19 17 16 15 12 9 6 5 5 7 7 8 10 13 13 13 13 13 15
12 11 9 10 12 11 11 10 10 10 11 14 22 29 30 30 29 28 29 30 31 35 38 40 41 43 43 43 44 44 42 44 48 48 45 43 45 47 49 48 46 45 44 45 45 44 43 42 41 41 42 42 45 50 55 58 58 54 49 46 42 38 35 31 27 24 22 20 17 15 14 12 9 7 6 6 7 7 8 10 12 11 9 10 11 13
11 11 9 10 12 13 12 13 13 10 8 13 24 34 36 34 32 30 30 30 32 34 35 35 37 41 43 45 47 46 43 45 49 48 45 44 46 48 49 48 47 47 46 46 46 46 44 43 43 43 44 46 49 53 57 60 59 55 50 46 42 38 34 31 27 25 22 20 18 16 14 12 10 9 7 6 6 7 8 10 12 11 9 9 9 10
Wind_Direction
180 219 229 235 234 218 202 209 225 266 292 248 247 244 253 255 265 267 117 111 166 239 248 248 254 260 263 265 269 271 266 256 255 253 258 259 258 262 261 257 254 255 260 262 255 250 246 241 236 231 229 227 226 226 226 226 225 225 224 224 224 224 223 223 224 226 227 230 232 233 233 233 233 235 238 243 249 255 264 274 284 291 298 303 305 306
164 227 240 240 238 204 183 203 198 159 174 223 236 248 256 248 261 273 87 117 150 227 256 255 263 262 260 263 267 266 255 252 257 255 259 263 263 264 262 258 257 258 262 261 255 250 245 240 235 231 229 227 226 226 225 226 226 226 225 224 224 223 223 224 225 227 229 230 232 232 231 231 232 234 238 243 249 256 264 273 283 290 297 301 302 303
198 240 246 239 111 89 70 151 181 201 194 210 228 249 263 256 277 285 89 108 150 229 268 276 279 270 262 259 260 260 248 248 258 258 261 265 265 264 262 260 257 256 259 258 254 250 244 239 235 231 229 227 227 227 227 227 227 226 225 223 223 223 223 225 226 227 229 230 231 231 230 231 232 234 237 242 248 256 264 272 280 288 294 298 300 302
209 250 260 99 116 130 85 115 169 193 194 209 209 229 252 249 288 271 132 97 182 229 286 293 282 270 260 253 252 256 254 254 259 260 261 261 261 261 261 260 256 253 258 256 252 249 243 238 234 231 229 227 227 227 228 228 228 226 224 223 223 223 224 225 227 228 229 230 230 230 230 230 232 234 237 240 246 255 264 272 279 286 291 297 301 303
233 242 85 98 137 164 144 153 182 200 211 218 214 226 246 245 233 243 348 341 246 214 285 300 287 266 233 231 243 253 258 257 256 258 261 259 258 258 258 257 253 254 257 254 250 248 244 237 234 232 230 229 228 229 229 229 228 227 225 224 224 224 225 226 227 228 228 229 229 229 230 230 231 234 237 242 249 258 269 279 284 288 293 299 303 303
248 182 116 119 121 163 176 191 198 203 216 230 222 225 240 256 253 246 23 343 288 247 259 339 308 285 167 174 234 241 254 259 244 238 253 260 262 261 258 254 251 253 255 252 251 249 247 242 236 234 231 230 230 231 231 230 229 229 226 225 224 225 225 226 227 227 228 228 228 229 229 230 232 235 240 245 254 264 273 280 285 290 295 299 301 301
248 125 120 152 153 166 202 233 203 187 213 246 223 220 234 247 257 259 330 284 278 283 348 22 307 288 214 165 201 191 223 256 245 238 249 257 262 263 262 256 250 254 251 247 247 247 246 242 237 235 234 233 233 233 233 231 230 228 227 225 225 225 226 226 227 227 228 228 227 228 229 231 233 238 245 250 259 269 274 280 286 292 295 297 298 298
134 121 125 161 162 177 216 241 187 168 202 247 79 113 188 205 219 215 212 237 272 318 302 196 237 278 273 201 199 208 225 253 261 263 266 259 259 262 262 258 254 254 249 242 242 242 243 243 242 240 238 236 235 234 234 232 229 228 226 225 225 226 226 227 227 227 227 227 227 228 229 232 235 240 247 254 263 271 276 283 288 291 294 294 295 294
99 158 174 166 171 202 213 239 161 172 199 298 75 68 102 128 155 164 208 245 280 324 269 198 187 267 274 187 179 232 228 243 254 256 260 259 260 261 260 261 257 248 243 239 239 241 245 249 250 247 243 240 237 236 235 233 230 228 226 224 224 225 226 227 227 227 226 226 227 228 230 233 237 241 248 257 266 273 278 284 288 290 292 292 291 292
59 185 190 167 179 211 184 46 114 190 200 131 126 89 85 84 84 124 236 253 260 272 247 190 168 245 277 172 137 140 213 227 245 248 250 256 261 261 260 262 252 233 231 233 235 241 248 254 254 250 245 241 238 237 236 233 230 228 226 224 224 225 226 227 227 226 225 226 227 229 232 235 238 242 249 259 268 273 277 282 286 288 289 289 289 289
94 109 264 207 205 153 103 72 29 42 115 139 146 107 98 107 93 120 247 236 261 259 217 192 184 210 274 193 142 154 177 197 221 239 249 258 262 263 261 253 231 218 222 226 232 242 249 251 251 246 242 240 237 235 233 231 229 227 226 224 225 226 227 227 227 226 225 225 227 230 233 236 238 243 250 259 267 270 275 281 284 285 287 287 287 288
153 179 214 210 174 117 102 94 61 61 115 159 158 141 199 220 148 167 183 160 247 258 188 193 193 201 241 246 138 131 138 195 219 237 247 250 253 257 255 239 217 212 217 221 230 241 246 248 248 244 241 237 234 232 230 230 228 226 225 224 225 226 227 227 226 225 225 225 228 230 233 236 239 244 251 259 264 268 274 279 282 284 285 287 289 293
197 206 163 145 171 166 156 117 99 104 175 196 173 164 241 265 245 240 218 186 234 251 125 134 178 211 241 253 237 242 242 224 224 239 252 254 247 250 243 226 215 212 215 221 229 241 247 251 253 249 245 241 237 233 230 228 227 226 225 224 225 227 227 227 226 225 225 226 228 230 233 235 239 245 251 257 262 267 273 278 280 283 286 290 295 300
228 250 138 160 208 189 186 182 194 193 177 188 182 175 214 233 247 253 242 240 257 251 137 126 144 244 258 263 240 236 237 231 220 232 248 253 252 249 235 218 213 213 218 224 231 245 254 256 257 253 250 247 244 239 232 229 228 226 225 224 225 227 228 227 226 226 226 226 228 230 232 235 239 245 250 255 261 266 272 275 279 284 290 295 300 303
238 269 172 173 169 170 188 206 180 120 154 186 178 173 225 213 214 252 266 275 288 297 213 156 177 249 262 286 223 227 240 235 227 235 244 249 249 249 240 223 216 218 225 231 236 244 254 258 256 252 251 249 245 241 235 231 228 227 225 225 225 227 227 227 226 226 226 227 228 230 232 235 239 244 249 255 261 265 269 274 279 288 294 299 303 305
244 270 167 136 113 156 179 209 98 103 149 176 110 182 240 215 202 252 298 281 304 308 263 186 213 250 250 212 188 144 253 227 228 236 240 246 247 246 246 241 232 229 232 236 239 243 250 254 250 246 248 245 242 239 236 234 231 228 226 225 226 227 227 226 226 226 226 227 228 229 231 234 238 243 248 255 259 263 268 275 283 291 297 302 306 308
232 272 125 95 26 154 149 15 104 144 180 153 164 197 207 7 204 233 262 102 98 277 267 219 248 270 276 240 193 176 210 211 223 235 229 239 244 242 244 247 244 240 240 243 244 244 248 250 246 245 246 243 241 240 238 238 235 231 228 225 225 226 226 226 226 225 225 226 227 228 231 233 238 242 248 253 257 262 270 279 288 295 300 304 308 311
222 268 180 154 177 144 24 32 82 1 22 141 193 193 140 52 359 243 261 274 240 257 270 270 271 279 277 265 160 160 206 220 225 228 220 235 242 239 241 245 245 244 245 248 247 244 245 244 241 244 247 245 243 241 239 239 237 233 229 227 226 226 225 224 224 224 224 226 227 228 230 232 236 241 246 250 256 264 274 284 292 297 302 306 310 312
197 256 232 157 56 111 113 176 134 52 20 98 263 243 129 207 178 164 215 244 246 250 275 280 280 279 258 249 165 165 196 216 224 221 218 230 232 230 238 243 245 245 245 244 241 238 238 237 238 245 249 247 244 241 238 238 236 233 229 227 227 227 226 224 223 224 225 226 227 228 229 231 235 239 244 249 256 267 277 286 293 299 305 309 311 312
172 239 249 50 10 102 140 214 192 175 155 29 274 224 278 261 186 176 187 210 242 249 274 283 284 279 249 203 194 195 194 207 216 213 217 223 222 227 235 241 245 244 241 237 233 232 233 233 238 247 250 248 244 240 238 237 235 232 229 226 225 225 224 223 223 224 225 225 226 226 227 230 234 238 243 249 259 270 279 287 294 300 306 309 310 311
109 232 242 86 355 216 188 199 198 192 174 173 202 187 186 202 93 283 246 187 235 245 254 268 273 274 266 121 169 197 198 208 205 206 216 217 226 233 237 241 245 246 243 236 230 229 230 232 239 247 250 248 244 241 239 238 235 231 228 225 223 222 222 222 223 223 224 224 224 225 226 229 233 238 244 252 262 272 281 289 296 302 305 308 309 312
162 210 225 203 209 227 223 204 205 222 182 178 191 185 188 182 152 219 232 202 207 237 238 237 259 269 269 104 163 193 196 212 198 208 224 216 225 235 240 242 244 244 242 237 232 229 230 233 240 247 250 248 245 242 240 237 234 230 227 224 222 221 221 221 222 222 222 223 223 224 225 228 232 238 245 255 264 274 283 291 297 302 304 307 310 313
169 147 217 235 237 232 247 15 330 298 274 201 225 205 192 184 178 201 216 203 170 233 249 243 262 268 261 101 177 199 177 211 208 212 222 217 225 236 243 243 242 240 238 236 233 230 230 235 241 247 250 249 245 243 241 238 235 230 226 223 221 220 220 221 221 222 222 222 222 222 224 228 232 239 246 257 266 276 286 292 297 301 303 307 312 315
111 119 213 245 268 260 128 114 160 288 153 204 238 217 191 197 200 205 221 213 183 225 232 196 245 263 263 110 226 233 142 235 226 220 225 225 230 239 244 243 242 239 235 233 232 230 232 237 242 248 250 248 246 244 242 239 236 230 225 222 221 220 220 221 220 220 220 220 220 221 223 227 232 239 248 258 268 278 286 292 296 299 303 309 313 317
161 199 195 212 257 257 244 212 198 197 197 220 239 205 198 206 204 210 343 306 240 239 231 209 242 255 257 130 217 176 181 259 242 226 241 243 237 240 243 242 243 240 235 233 233 232 235 240 245 250 251 248 246 245 243 240 235 230 225 222 220 219 219 220 219 218 218 218 218 220 223 226 232 240 249 259 269 279 285 290 295 299 305 311 315 317
173 189 177 197 227 229 238 241 215 150 192 232 256 190 198 204 197 201 223 215 235 240 226 216 244 256 267 267 256 232 217 249 239 208 244 254 249 246 245 243 245 242 236 236 236 235 239 245 250 252 252 249 247 245 243 240 235 230 225 221 220 219 218 218 217 217 216 216 217 219 222 226 232 241 250 260 270 279 284 290 295 301 307 312 315 316
165 195 191 208 226 222 235 249 241 110 152 206 213 189 196 207 204 203 218 224 229 232 222 230 242 254 268 274 273 267 250 253 250 203 232 250 249 247 246 247 248 246 244 242 240 239 245 252 254 255 253 249 247 245 243 239 235 230 225 221 219 218 218 217 216 215 215 215 216 218 221 227 233 241 251 261 270 277 283 289 296 303 309 313 314 315
136 218 206 219 233 231 241 251 249 220 183 199 201 191 199 208 206 211 226 227 208 93 241 241 245 253 262 268 271 269 262 261 264 261 260 261 257 250 249 251 252 252 251 249 246 247 253 256 256 255 252 249 247 245 242 238 234 230 225 221 218 216 216 216 214 214 213 213 215 217 221 227 234 242 252 262 270 277 283 290 299 306 310 313 314 315
176 232 223 231 243 243 247 253 254 250 237 228 222 216 216 211 206 215 228 228 210 222 242 247 251 257 258 255 258 262 263 261 266 272 274 275 270 254 249 253 255 255 254 252 251 254 257 257 257 256 253 250 247 245 240 235 231 227 223 220 218 216 215 214 213 212 211 212 214 217 221 227 234 243 253 262 270 277 285 293 301 307 310 312 314 315
197 240 240 247 257 257 254 257 257 257 258 255 250 244 239 234 223 219 231 233 224 232 244 251 255 259 257 254 256 263 272 274 276 279 280 279 272 260 255 259 261 260 258 256 257 259 259 259 259 258 254 250 247 244 239 235 230 226 221 218 216 215 213 212 211 210 210 211 212 216 221 227 235 244 253 262 270 278 288 296 303 307 309 312 314 315
217 239 250 255 261 256 252 255 255 255 258 260 258 254 248 247 240 229 237 237 232 242 250 250 256 260 255 256 263 275 279 279 281 281 279 275 272 269 266 266 266 266 264 261 261 262 261 260 259 256 253 251 249 245 240 236 231 225 220 217 215 214 212 210 210 208 208 209 212 216 221 227 236 245 254 263 271 281 290 297 303 306 309 312 315 316
210 239 248 246 250 249 245 247 251 254 261 265 257 247 245 247 244 236 239 240 237 247 253 251 252 251 251 259 267 270 271 273 274 272 269 268 270 272 269 267 269 271 269 267 266 263 260 258 257 256 255 253 250 245 241 236 230 224 219 217 214 212 210 209 208 207 207 208 211 216 221 228 236 246 255 263 273 283 291 298 302 306 310 313 316 316
201 224 232 226 236 246 245 247 254 259 263 239 230 236 240 245 248 246 247 247 242 242 248 251 247 248 256 262 261 261 265 264 263 264 265 268 272 276 272 268 271 273 272 271 269 266 262 261 261 260 257 255 251 248 245 239 232 226 220 217 213 210 208 207 206 205 205 208 211 215 221 229 237 246 255 264 275 284 291 298 301 306 311 314 316 315
203 214 229 223 230 247 249 251 252 240 234 229 228 232 237 241 244 246 248 249 247 242 244 254 256 257 259 255 253 259 263 261 263 267 271 274 279 282 277 273 272 273 273 273 271 268 266 265 263 261 258 256 253 248 244 238 232 226 220 215 211 208 206 205 203 203 205 207 211 215 221 229 237 247 257 265 276 285 291 297 301 307 313 315 315 314
212 219 226 220 230 247 246 236 230 228 231 234 226 228 238 242 247 252 255 256 255 254 253 256 256 256 257 256 259 264 262 264 270 273 274 276 277 274 271 271 271 272 273 275 274 272 270 267 263 260 258 255 250 244 239 234 228 222 217 213 209 206 205 203 202 202 205 207 211 215 222 230 238 248 258 267 277 285 290 296 302 309 314 315 314 313
220 222 221 221 229 232 216 215 224 233 239 203 197 225 241 247 251 254 256 252 251 254 256 255 255 256 260 264 267 267 266 269 276 277 275 274 270 264 262 264 268 271 273 275 275 274 274 272 268 266 262 257 250 241 235 230 224 219 214 209 206 204 203 201 201 202 204 207 211 216 223 231 240 249 259 268 277 284 290 297 304 311 315 314 312 312
220 222 222 226 220 216 226 224 228 258 287 187 209 224 230 232 236 244 250 244 239 247 249 249 251 255 259 263 267 268 271 279 281 275 274 273 269 262 259 261 266 270 273 275 275 276 277 275 272 268 261 255 248 239 233 228 221 215 210 206 204 203 201 200 200 202 204 207 211 217 224 232 241 251 260 269 276 283 290 299 307 313 314 312 310 311
217 218 219 226 215 211 232 234 230 245 237 212 223 232 237 241 241 243 253 235 219 240 246 245 247 253 256 260 263 266 274 286 270 267 272 274 273 264 259 262 266 269 273 275 276 275 275 273 269 262 254 247 241 236 231 226 218 211 207 204 202 200 199 199 199 201 204 207 211 217 225 233 242 252 261 268 274 282 293 302 309 314 312 309 309 311
218 218 218 229 230 216 231 239 228 231 223 210 221 234 245 249 242 155 251 242 222 238 247 248 249 251 253 256 258 259 261 257 260 264 269 273 275 268 261 264 268 272 274 275 274 272 270 268 263 255 247 240 236 231 226 221 215 208 205 202 201 199 198 198 199 201 203 207 211 218 225 234 244 253 260 267 274 284 295 304 312 314 310 307 309 311
217 216 213 227 231 223 231 238 232 239 227 189 210 234 244 237 187 145 245 241 226 236 242 246 251 251 248 251 255 254 240 235 243 257 263 269 273 269 265 267 270 273 274 271 266 262 258 257 253 249 246 241 235 229 221 216 210 206 204 201 200 198 198 198 199 200 202 206 211 218 226 234 245 254 259 266 277 288 297 308 313 312 307 306 308 311
211 208 210 219 219 219 228 234 235 241 210 179 215 231 206 153 146 202 235 230 227 238 241 241 246 249 247 247 246 240 239 240 243 252 259 265 270 269 267 266 266 269 270 264 257 250 248 248 247 249 249 242 235 227 219 213 207 204 202 200 199 198 197 198 199 199 201 205 210 217 226 236 245 252 258 266 279 290 300 312 314 309 306 305 307 311
200 199 209 218 219 221 227 232 243 244 189 189 225 222 166 148 197 225 229 236 238 242 245 244 243 246 245 243 238 238 243 246 249 252 256 260 264 266 266 263 260 260 260 255 246 240 238 238 237 238 237 234 231 226 220 213 206 202 201 198 197 196 196 197 199 199 201 204 210 217 226 237 246 250 254 265 281 293 303 314 313 308 305 305 307 312
183 188 206 202 204 224 229 223 240 247 182 193 218 216 169 192 232 230 230 242 241 241 247 247 244 247 247 244 241 241 244 248 252 254 256 257 260 262 262 260 258 257 256 252 246 241 237 233 231 230 226 223 220 218 215 210 204 201 199 196 195 194 194 196 198 199 202 204 208 218 227 236 245 247 252 266 283 295 305 313 312 306 304 305 309 313
183 192 216 192 179 210 226 209 216 235 210 199 206 212 199 211 224 231 235 241 240 240 244 245 245 249 249 247 246 246 246 248 253 256 256 256 257 258 257 257 255 254 253 249 245 242 236 230 226 222 218 216 214 212 210 207 203 200 197 194 193 192 192 194 196 199 203 205 208 218 227 233 239 244 253 269 285 297 307 312 309 304 302 305 310 316
197 206 226 223 201 203 220 218 215 231 229 211 207 216 222 220 224 231 237 242 244 242 241 243 246 250 250 249 248 248 249 250 254 256 256 255 256 256 255 254 254 253 253 248 242 236 231 229 224 218 213 211 209 207 204 203 202 198 194 192 192 191 192 194 196 200 204 207 211 218 223 229 235 240 252 271 287 298 306 309 306 302 301 306 313 319
238 243 250 250 246 237 237 238 232 230 232 221 216 222 230 231 230 233 238 244 250 248 246 247 249 252 253 252 249 247 248 251 253 254 255 255 255 254 253 253 253 253 252 247 238 230 225 221 219 215 210 204 201 199 198 198 199 197 194 192 191 192 193 195 197 201 204 208 213 216 219 226 232 235 248 270 285 295 302 305 303 299 299 308 317 323
280 291 283 274 286 279 255 251 254 246 241 233 226 227 234 239 241 241 241 243 246 248 249 251 254 257 257 255 250 247 250 252 253 254 254 253 253 253 254 253 252 252 252 247 239 231 223 215 212 210 206 201 197 196 195 194 195 195 194 192 191 192 194 195 198 202 205 207 210 213 217 223 227 229 244 267 282 292 299 303 301 298 301 312 320 325
311 335 333 292 285 283 276 289 297 289 283 276 263 252 246 246 246 244 243 244 246 248 252 255 257 260 260 259 255 253 254 256 256 255 255 254 254 256 255 253 252 252 249 243 236 230 223 218 215 210 205 201 197 195 194 191 190 192 193 193 193 193 194 196 198 201 204 206 207 210 216 220 219 222 240 265 280 291 298 300 299 298 305 317 326 331
309 316 312 296 286 278 278 285 290 293 294 290 287 286 281 274 271 268 266 266 264 264 265 265 265 266 265 264 262 260 259 260 260 259 258 256 256 258 258 256 254 251 246 240 235 230 225 223 218 209 205 203 198 195 192 190 188 189 191 192 193 193 194 196 198 199 202 203 204 209 213 213 210 210 228 256 272 281 291 295 295 299 310 323 333 338
285 277 270 278 277 269 273 285 288 289 290 290 295 298 298 299 303 304 298 291 285 280 279 279 280 280 278 275 273 269 266 264 264 263 261 257 257 260 260 258 253 248 244 238 232 228 225 222 218 210 205 203 199 195 191 188 187 186 189 191 192 193 196 198 199 199 199 200 202 207 207 204 201 203 216 246 267 274 282 287 289 296 313 328 336 338
246 252 254 263 266 267 281 304 314 309 293 289 295 297 298 300 303 302 298 295 292 288 288 289 288 286 285 283 280 276 272 270 269 269 266 264 263 262 261 259 255 249 243 235 227 223 220 216 212 209 206 202 198 193 189 187 186 185 187 190 191 193 197 200 200 199 197 198 201 202 200 198 196 197 208 231 253 269 283 290 296 306 320 332 337 337